When you browse on this site, cookies collect data to enhance your experience and personalize the content and advertising you see.
Visit our Privacy Policy to learn more. By continuing to use the site, you agree to this use of cookies and data.
  • In Latvia
  • List of Countries
  • For 7 days
  • Water Temperature
  • Weather Map
  • Weather Widgets
  • user-avatar
    Login

    Hourly Weather Yanovo-Grushevskiy

    Today, 22 August, Thursday

    Time Temperature Precipitation Wind Pressure Humidity
    00:00 +29°C° 0 mm 6 mps 759 mmHg 42%
    01:00 +28°C° 0 mm 5 mps 759 mmHg 45%
    02:00 +28°C° 0 mm 5 mps 760 mmHg 47%
    03:00 +27°C° 0 mm 5 mps 760 mmHg 50%
    04:00 +27°C° 0 mm 5 mps 760 mmHg 52%
    05:00 +26°C° 0 mm 4 mps 759 mmHg 55%
    06:00 +26°C° 0 mm 4 mps 759 mmHg 58%
    07:00 +28°C° 0 mm 5 mps 760 mmHg 53%
    08:00 +29°C° 0 mm 5 mps 760 mmHg 49%
    09:00 +32°C° 0 mm 5 mps 760 mmHg 44%
    10:00 +34°C° 0 mm 5 mps 760 mmHg 39%
    11:00 +36°C° 0 mm 5 mps 760 mmHg 33%
    12:00 +39°C° 0 mm 5 mps 759 mmHg 28%
    13:00 +39°C° 0 mm 5 mps 759 mmHg 26%
    14:00 +40°C° 0 mm 5 mps 759 mmHg 24%
    15:00 +41°C° 0 mm 5 mps 759 mmHg 22%
    16:00 +40°C° 0 mm 5 mps 759 mmHg 24%
    17:00 +39°C° 0 mm 5 mps 759 mmHg 25%
    18:00 +37°C° 0 mm 5 mps 759 mmHg 27%
    19:00 +36°C° 0 mm 5 mps 759 mmHg 30%
    20:00 +34°C° 0 mm 5 mps 759 mmHg 34%
    21:00 +32°C° 0 mm 4 mps 760 mmHg 37%
    22:00 +30°C° 0 mm 4 mps 760 mmHg 39%
    23:00 +29°C° 0 mm 4 mps 760 mmHg 41%

    Tomorrow, 23 August, Friday

    Time Temperature Precipitation Wind Pressure Humidity
    00:00 +28°C° 0 mm 4 mps 760 mmHg 43%
    01:00 +28°C° 0 mm 4 mps 760 mmHg 44%
    02:00 +28°C° 0 mm 4 mps 760 mmHg 45%
    03:00 +27°C° 0 mm 4 mps 760 mmHg 46%
    04:00 +27°C° 0 mm 5 mps 760 mmHg 46%
    05:00 +27°C° 0 mm 5 mps 760 mmHg 46%
    06:00 +27°C° 0 mm 5 mps 760 mmHg 46%
    07:00 +28°C° 0 mm 5 mps 760 mmHg 43%
    08:00 +30°C° 0 mm 6 mps 760 mmHg 39%
    09:00 +32°C° 0 mm 6 mps 761 mmHg 36%
    10:00 +34°C° 0 mm 6 mps 761 mmHg 33%
    11:00 +35°C° 0 mm 6 mps 760 mmHg 30%
    12:00 +38°C° 0 mm 6 mps 760 mmHg 26%
    13:00 +39°C° 0 mm 6 mps 760 mmHg 26%
    14:00 +39°C° 0 mm 6 mps 760 mmHg 25%
    15:00 +39°C° 0 mm 6 mps 760 mmHg 25%
    16:00 +39°C° 0 mm 6 mps 760 mmHg 27%
    17:00 +38°C° 0 mm 6 mps 760 mmHg 28%
    18:00 +36°C° 0 mm 6 mps 760 mmHg 30%
    19:00 +35°C° 0 mm 6 mps 760 mmHg 33%
    20:00 +33°C° 0 mm 6 mps 760 mmHg 36%
    21:00 +30°C° 0 mm 6 mps 761 mmHg 38%
    22:00 +30°C° 0 mm 5 mps 761 mmHg 41%
    23:00 +29°C° 0 mm 5 mps 760 mmHg 43%

    Day after tomorrow, 24 August, Saturday

    Time Temperature Precipitation Wind Pressure Humidity
    00:00 +28°C° 0 mm 5 mps 760 mmHg 45%
    01:00 +27°C° 0 mm 5 mps 760 mmHg 48%
    02:00 +27°C° 0 mm 5 mps 760 mmHg 50%
    03:00 +26°C° 0 mm 5 mps 760 mmHg 52%
    04:00 +26°C° 0 mm 5 mps 760 mmHg 54%
    05:00 +26°C° 0 mm 5 mps 760 mmHg 55%
    06:00 +25°C° 0 mm 5 mps 760 mmHg 56%
    07:00 +27°C° 0 mm 5 mps 760 mmHg 52%
    08:00 +29°C° 0 mm 6 mps 760 mmHg 47%
    09:00 +30°C° 0 mm 6 mps 761 mmHg 43%
    10:00 +33°C° 0 mm 6 mps 760 mmHg 39%
    11:00 +35°C° 0 mm 6 mps 760 mmHg 34%
    12:00 +38°C° 0 mm 6 mps 760 mmHg 30%
    13:00 +38°C° 0 mm 6 mps 760 mmHg 28%
    14:00 +39°C° 0 mm 6 mps 760 mmHg 27%
    15:00 +40°C° 0 mm 6 mps 760 mmHg 25%
    16:00 +39°C° 0 mm 6 mps 759 mmHg 26%
    17:00 +39°C° 0 mm 6 mps 759 mmHg 26%
    18:00 +37°C° 0 mm 5 mps 759 mmHg 27%
    19:00 +35°C° 0 mm 5 mps 759 mmHg 30%
    20:00 +34°C° 0 mm 5 mps 759 mmHg 33%
    21:00 +32°C° 0 mm 5 mps 759 mmHg 37%
    22:00 +30°C° 0 mm 5 mps 759 mmHg 38%
    23:00 +30°C° 0 mm 6 mps 759 mmHg 39%

    25 August, Sunday

    Time Temperature Precipitation Wind Pressure Humidity
    00:00 +29°C° 0 mm 6 mps 759 mmHg 40%
    01:00 +28°C° 0 mm 5 mps 759 mmHg 42%
    02:00 +28°C° 0 mm 5 mps 759 mmHg 44%
    03:00 +27°C° 0 mm 5 mps 759 mmHg 46%
    04:00 +26°C° 0 mm 5 mps 759 mmHg 49%
    05:00 +26°C° 0 mm 4 mps 759 mmHg 52%
    06:00 +25°C° 0 mm 4 mps 759 mmHg 54%
    07:00 +27°C° 0 mm 4 mps 759 mmHg 50%
    08:00 +28°C° 0 mm 4 mps 759 mmHg 45%
    09:00 +30°C° 0 mm 4 mps 759 mmHg 41%
    10:00 +33°C° 0 mm 5 mps 759 mmHg 36%
    11:00 +34°C° 0 mm 5 mps 759 mmHg 32%
    12:00 +36°C° 0 mm 5 mps 759 mmHg 28%
    13:00 +35°C° 0 mm 5 mps 759 mmHg 29%
    14:00 +35°C° 0 mm 5 mps 759 mmHg 31%
    15:00 +34°C° 0 mm 5 mps 759 mmHg 33%
    16:00 +33°C° 0 mm 6 mps 759 mmHg 38%
    17:00 +32°C° 0 mm 6 mps 759 mmHg 42%
    18:00 +29°C° 0 mm 6 mps 759 mmHg 47%
    19:00 +28°C° 0 mm 6 mps 760 mmHg 50%
    20:00 +26°C° 0 mm 5 mps 760 mmHg 53%
    21:00 +25°C° 0 mm 5 mps 760 mmHg 57%
    22:00 +25°C° 0 mm 5 mps 760 mmHg 58%
    23:00 +23°C° 0 mm 4 mps 761 mmHg 60%

    26 August, Monday

    Time Temperature Precipitation Wind Pressure Humidity
    00:00 +23°C° 0 mm 4 mps 761 mmHg 61%
    01:00 +23°C° 0 mm 4 mps 761 mmHg 62%
    02:00 +22°C° 0 mm 5 mps 761 mmHg 63%
    03:00 +22°C° 0 mm 5 mps 761 mmHg 64%
    04:00 +22°C° 0 mm 5 mps 762 mmHg 66%
    05:00 +22°C° 0 mm 5 mps 762 mmHg 67%
    06:00 +22°C° 0 mm 5 mps 762 mmHg 69%
    07:00 +23°C° 0 mm 5 mps 763 mmHg 64%
    08:00 +25°C° 0 mm 5 mps 763 mmHg 60%
    09:00 +27°C° 0 mm 5 mps 763 mmHg 55%
    10:00 +28°C° 0 mm 5 mps 763 mmHg 52%
    11:00 +29°C° 0 mm 6 mps 764 mmHg 48%
    12:00 +30°C° 0 mm 6 mps 764 mmHg 45%
    13:00 +30°C° 0 mm 6 mps 764 mmHg 43%
    14:00 +30°C° 0 mm 5 mps 764 mmHg 41%
    15:00 +32°C° 0 mm 5 mps 764 mmHg 40%
    16:00 +30°C° 0 mm 5 mps 764 mmHg 38%
    17:00 +30°C° 0 mm 5 mps 764 mmHg 36%
    18:00 +30°C° 0 mm 5 mps 764 mmHg 34%
    19:00 +29°C° 0 mm 5 mps 764 mmHg 38%
    20:00 +27°C° 0 mm 5 mps 765 mmHg 41%
    21:00 +25°C° 0 mm 5 mps 765 mmHg 44%
    22:00 +25°C° 0 mm 5 mps 765 mmHg 44%
    23:00 +23°C° 0 mm 6 mps 765 mmHg 45%

    27 August, Tuesday

    Time Temperature Precipitation Wind Pressure Humidity
    00:00 +22°C° 0 mm 6 mps 766 mmHg 45%
    01:00 +22°C° 0 mm 6 mps 766 mmHg 46%
    02:00 +21°C° 0 mm 5 mps 766 mmHg 47%
    03:00 +20°C° 0 mm 5 mps 766 mmHg 48%
    04:00 +20°C° 0 mm 5 mps 766 mmHg 49%
    05:00 +19°C° 0 mm 5 mps 766 mmHg 51%
    06:00 +17°C° 0 mm 5 mps 766 mmHg 52%
    07:00 +20°C° 0 mm 5 mps 767 mmHg 49%
    08:00 +22°C° 0 mm 5 mps 767 mmHg 45%
    09:00 +23°C° 0 mm 6 mps 767 mmHg 42%
    10:00 +26°C° 0 mm 6 mps 767 mmHg 37%
    11:00 +27°C° 0 mm 6 mps 767 mmHg 33%
    12:00 +29°C° 0 mm 6 mps 767 mmHg 29%
    13:00 +29°C° 0 mm 6 mps 767 mmHg 27%
    14:00 +30°C° 0 mm 6 mps 766 mmHg 25%
    15:00 +30°C° 0 mm 6 mps 766 mmHg 23%
    16:00 +29°C° 0 mm 6 mps 766 mmHg 23%
    17:00 +29°C° 0 mm 6 mps 766 mmHg 23%
    18:00 +28°C° 0 mm 6 mps 766 mmHg 22%
    19:00 +26°C° 0 mm 5 mps 766 mmHg 24%
    20:00 +23°C° 0 mm 5 mps 767 mmHg 25%
    21:00 +21°C° 0 mm 5 mps 767 mmHg 26%
    22:00 +20°C° 0 mm 5 mps 767 mmHg 28%
    23:00 +20°C° 0 mm 5 mps 767 mmHg 29%
    Show more